Terminal Aerodrome Forecast
Issued by NWS

Home | Current Version | Previous Version | Text Only | Print | Product List | Glossary On
Versions: 1 2 3 4 5 6 7 8 9 10 11 12 13 14 15 16 17 18 19 20 21 22 23 24 25 26 27 28 29 30 31 32 33 34 35 36 37 38 39 40 41 42
000
FTAK31 PANC 180200 AAA
TAFASN
TAF AMD
PASN 180200Z 1802/1824 06013KT P6SM SCT006 BKN015
      TEMPO 1802/1806 BKN006
     FM180600 02011KT P6SM SCT015 BKN025
     FM181200 36008KT 3SM BR OVC015
     FM182000 35013KT P6SM VCSH OVC015=

USA.gov is the U.S. government's official web portal to all federal, state and local government web resources and services.